Location: Girdwood
(60.9430°N, 149.1660°W)
Time: 14:24:52
(UTC-08:00)

Amateur Radio Satellites - All Passes

Search period start: 22 October 2014 13:54
Search period end: 23 October 2014 13:54
Location: Girdwood, 60.9430°N, 149.1660°W

Satellite Date Start Highest point End Downlink Frequencies (MHz)
Time Altitude Azimuth
ZACube-1 22 Oct 14:00:18 14:04:12 32° 303° (WNW) 14:08:00 437.345 MHz
Saudisat 1A 22 Oct 14:09:05 14:13:26 53° 2° (N) 14:17:48 436.775 MHz
UKube-1 22 Oct 14:10:49 14:13:55 19° 314° (NW) 14:17:01 145.840 MHz, 145.915 MHz
SO-50 22 Oct 14:16:28 14:18:01 12° 112° (ESE) 14:19:34 436.795 FM
Oscar 16 22 Oct 14:19:49 14:25:00 78° 253° (WSW) 14:30:12 437.025 USB, Beacon 2401.1428
JAS-2 22 Oct 14:20:51 14:24:49 17° 14° (NNE) 14:29:00 435.800 - 435.900 CW/SSB, 435.910 FM
Uribyol 2 22 Oct 14:34:41 14:39:55 78° 68° (ENE) 14:45:11 436.500 FM
AO-Echo 22 Oct 14:35:10 14:40:08 84° 70° (ENE) 14:45:19 ?
ITAMSAT 1 22 Oct 14:40:04 14:45:18 80° 68° (ENE) 14:50:35 435.822 SSB
Uosat F 22 Oct 14:41:40 14:44:59 18° 38° (NE) 14:48:18 435.120 FM
Gurwin Techsat 1B 22 Oct 14:45:12 14:50:24 57° 63° (ENE) 14:55:38 435.225 FM
FUNcube-1 22 Oct 14:46:12 14:49:13 18° 314° (NW) 14:52:10 145.950 - 145.970 MHz USB
Oscar 11 22 Oct 14:55:55 14:57:18 11° 323° (NW) 14:58:41 145.825 FM, Beacon 2401.500 USB
TMSAT-1 22 Oct 14:58:06 15:03:17 56° 62° (ENE) 15:08:30 436.925 FM
Sapphire 22 Oct 15:00:07 15:04:45 29° 242° (WSW) 15:09:22 437.095 MHz 1200 baud AX-25 AFSK
JAS-1B 22 Oct 15:14:29 15:20:03 47° 261° (W) 15:25:36 435.800 - 435.900 CW/SSB
Oscar 19 22 Oct 15:14:30 15:19:16 37° 265° (W) 15:24:03 437.125 CW, 437.150 USB
HO-68 22 Oct 15:17:13 15:22:21 22° 339° (NNW) 15:27:29 435.675 MHz FM
PCSat 22 Oct 15:23:20 15:27:19 21° 248° (WSW) 15:31:17 145.825 MHz
AO-27 22 Oct 15:25:19 15:30:27 55° 258° (WSW) 15:35:38 436.795 MHz FM
AO-7 22 Oct 15:27:58 15:35:59 57° 50° (NE) 15:44:02 29.400 - 29.500 MHz
ZACube-1 22 Oct 15:38:30 15:39:27 11° 326° (NW) 15:40:23 437.345 MHz
KITSAT 1 22 Oct 15:45:25 15:53:30 79° 139° (SE) 16:01:37 435.175 FM
Saudisat 1A 22 Oct 15:48:56 15:53:24 81° 26° (NNE) 15:57:51 436.775 MHz
SO-50 22 Oct 15:53:09 15:57:28 42° 133° (SE) 16:01:55 436.795 FM
UOSAT-12 22 Oct 15:54:06 15:55:17 11° 111° (ESE) 15:56:28 437.025 FM, 437.400 FM
Hamsat 22 Oct 15:56:46 15:57:21 10° 37° (NE) 15:57:56 145.90 MHz
Oscar 16 22 Oct 16:01:31 16:05:13 20° 275° (W) 16:08:56 437.025 USB, Beacon 2401.1428
JAS-2 22 Oct 16:02:28 16:07:50 28° 39° (NE) 16:13:42 435.800 - 435.900 CW/SSB, 435.910 FM
Uribyol 2 22 Oct 16:15:32 16:19:58 27° 269° (W) 16:24:27 436.500 FM
AO-Echo 22 Oct 16:15:34 16:19:35 24° 272° (W) 16:23:44 ?
Uosat F 22 Oct 16:17:59 16:22:52 52° 61° (ENE) 16:27:46 435.120 FM
ITAMSAT 1 22 Oct 16:21:01 16:25:24 27° 270° (W) 16:29:49 435.822 SSB
Gurwin Techsat 1B 22 Oct 16:25:42 16:30:39 38° 264° (W) 16:35:39 435.225 FM
TMSAT-1 22 Oct 16:38:31 16:43:29 39° 264° (W) 16:48:29 436.925 FM
HO-68 22 Oct 17:03:19 17:07:51 18° 5° (N) 17:12:24 435.675 MHz FM
ISS 22 Oct 17:07:00 17:08:59 15° 167° (SSE) 17:10:59 145.800 FM
AO-27 22 Oct 17:08:29 17:11:11 14° 280° (W) 17:13:53 436.795 MHz FM
JAS-1B 22 Oct 17:11:03 17:12:32 11° 286° (WNW) 17:14:02 435.800 - 435.900 CW/SSB
AO-7 22 Oct 17:20:40 17:28:52 62° 254° (WSW) 17:37:07 29.400 - 29.500 MHz
Hamsat 22 Oct 17:28:28 17:32:14 33° 59° (ENE) 17:36:01 145.90 MHz
Saudisat 1A 22 Oct 17:28:41 17:32:46 37° 228° (SW) 17:36:50 436.775 MHz
UOSAT-12 22 Oct 17:29:55 17:34:18 39° 132° (SE) 17:38:43 437.025 FM, 437.400 FM
SO-50 22 Oct 17:33:13 17:37:52 77° 336° (NNW) 17:42:40 436.795 FM
KITSAT 1 22 Oct 17:41:17 17:49:21 66° 346° (NNW) 17:57:25 435.175 FM
OPAL 22 Oct 17:42:40 17:44:20 12° 81° (E) 17:46:00 ?
JAS-2 22 Oct 17:45:42 17:51:54 70° 64° (ENE) 17:58:59 435.800 - 435.900 CW/SSB, 435.910 FM
Uosat F 22 Oct 17:57:05 18:01:50 41° 262° (W) 18:06:38 435.120 FM
ISS 22 Oct 18:42:37 18:44:50 17° 187° (S) 18:47:03 145.800 FM
SO-67 22 Oct 18:46:19 18:49:14 26° 59° (ENE) 18:52:10 435.3500 MHz FM
HO-68 22 Oct 18:47:49 18:53:32 27° 31° (NNE) 18:59:16 435.675 MHz FM
Hamsat 22 Oct 19:04:00 19:08:07 51° 260° (W) 19:12:13 145.90 MHz
UOSAT-12 22 Oct 19:09:31 19:14:15 81° 335° (NNW) 19:19:03 437.025 FM, 437.400 FM
SO-50 22 Oct 19:14:15 19:18:52 55° 360° (N) 19:23:37 436.795 FM
AO-7 22 Oct 19:17:35 19:23:31 21° 279° (W) 19:29:31 29.400 - 29.500 MHz
OPAL 22 Oct 19:19:38 19:24:31 48° 103° (ESE) 19:29:19 ?
STRAND 1 22 Oct 19:22:07 19:25:02 15° 81° (E) 19:27:56 ?
JAS-2 22 Oct 19:31:47 19:37:33 38° 269° (W) 19:44:03 435.800 - 435.900 CW/SSB, 435.910 FM
KITSAT 1 22 Oct 19:37:39 19:45:44 65° 14° (NNE) 19:53:48 435.175 FM
SO-67 22 Oct 20:18:43 20:22:05 48° 260° (W) 20:25:27 435.3500 MHz FM
ZACube-1 22 Oct 20:21:15 20:22:44 12° 36° (NE) 20:24:14 437.345 MHz
UKube-1 22 Oct 20:28:35 20:31:44 20° 47° (NE) 20:34:55 145.840 MHz, 145.915 MHz
HO-68 22 Oct 20:33:08 20:40:07 58° 55° (NE) 20:47:09 435.675 MHz FM
Hamsat 22 Oct 20:44:24 20:45:06 10° 281° (W) 20:45:47 145.90 MHz
UOSAT-12 22 Oct 20:50:09 20:54:50 55° 358° (N) 20:59:31 437.025 FM, 437.400 FM
SO-50 22 Oct 20:55:07 20:59:53 77° 23° (NNE) 21:04:45 436.795 FM
OPAL 22 Oct 20:58:41 21:03:28 45° 305° (NW) 21:08:10 ?
STRAND 1 22 Oct 21:00:13 21:05:21 59° 103° (ESE) 21:10:27 ?
FUNcube-1 22 Oct 21:04:23 21:07:30 19° 47° (NE) 21:10:35 145.950 - 145.970 MHz USB
Oscar 11 22 Oct 21:11:16 21:15:02 30° 56° (NE) 21:18:48 145.825 FM, Beacon 2401.500 USB
JAS-2 22 Oct 21:23:27 21:25:01 11° 295° (WNW) 21:26:39 435.800 - 435.900 CW/SSB, 435.910 FM
KITSAT 1 22 Oct 21:33:28 21:41:35 79° 221° (SW) 21:49:39 435.175 FM
ZACube-1 22 Oct 21:53:56 21:58:03 34° 58° (ENE) 22:02:07 437.345 MHz
UKube-1 22 Oct 22:03:00 22:07:21 74° 68° (ENE) 22:11:45 145.840 MHz, 145.915 MHz
HO-68 22 Oct 22:21:02 22:28:01 53° 259° (W) 22:35:05 435.675 MHz FM
UOSAT-12 22 Oct 22:30:40 22:35:27 73° 22° (NNE) 22:40:11 437.025 FM, 437.400 FM
AO-40 22 Oct 22:31:53 00:00:37 13° 130° (SE) 00:57:00 Beacon 2401.320
SO-50 22 Oct 22:35:48 22:40:21 44° 226° (SW) 22:44:57 436.795 FM
OPAL 22 Oct 22:38:10 22:41:22 17° 328° (NNW) 22:44:32 ?
FUNcube-1 22 Oct 22:38:42 22:43:14 66° 68° (ENE) 22:47:42 145.950 - 145.970 MHz USB
STRAND 1 22 Oct 22:39:40 22:44:26 38° 305° (NW) 22:49:10 ?
Oscar 11 22 Oct 22:46:42 22:51:00 62° 257° (WSW) 22:55:20 145.825 FM, Beacon 2401.500 USB
RS-15 22 Oct 23:13:02 23:21:56 31° 107° (ESE) 23:30:50 29.354 - 29.394 USB, Beacon 29.352 USB
Oscar 10/S400 22 Oct 23:13:54 23:50:03 25° 207° (SSW) 02:43:40 145.825 - 145.975 CW/USB, Beacon 145.810 USB
KITSAT 1 22 Oct 23:29:08 23:36:07 34° 246° (WSW) 23:43:05 435.175 FM
ZACube-1 22 Oct 23:29:50 23:34:21 55° 259° (WSW) 23:38:47 437.345 MHz
UKube-1 22 Oct 23:40:31 23:44:02 23° 269° (W) 23:47:35 145.840 MHz, 145.915 MHz
UOSAT-12 23 Oct 00:10:58 00:15:32 47° 224° (SW) 00:20:03 437.025 FM, 437.400 FM
HO-68 23 Oct 00:13:16 00:17:33 16° 283° (WNW) 00:21:51 435.675 MHz FM
FUNcube-1 23 Oct 00:16:05 00:20:00 27° 268° (W) 00:23:52 145.950 - 145.970 MHz USB
SO-50 23 Oct 00:17:46 00:19:54 13° 247° (WSW) 00:22:02 436.795 FM
STRAND 1 23 Oct 00:19:41 00:22:28 15° 327° (NNW) 00:25:14 ?
Oscar 11 23 Oct 00:26:01 00:28:06 13° 278° (W) 00:30:12 145.825 FM, Beacon 2401.500 USB
ZACube-1 23 Oct 01:09:49 01:11:44 12° 280° (W) 01:13:39 437.345 MHz
MaSat-1 23 Oct 01:18:25 01:20:58 17° 114° (ESE) 01:23:23 437.345 MHz
RS-15 23 Oct 01:21:41 01:32:29 71° 135° (SE) 01:43:24 29.354 - 29.394 USB, Beacon 29.352 USB
UOSAT-12 23 Oct 01:52:19 01:54:43 14° 246° (WSW) 01:57:07 437.025 FM, 437.400 FM
OPAL 23 Oct 01:54:09 01:55:30 11° 16° (NNE) 01:56:52 ?
Oscar 16 23 Oct 02:21:39 02:25:20 19° 85° (E) 02:28:59 437.025 USB, Beacon 2401.1428
AO-Echo 23 Oct 02:32:43 02:35:53 16° 81° (E) 02:39:02 ?
Uribyol 2 23 Oct 02:38:15 02:40:56 14° 80° (E) 02:43:36 436.500 FM
ITAMSAT 1 23 Oct 02:43:40 02:46:31 15° 80° (E) 02:49:21 435.822 SSB
JAS-1B 23 Oct 02:45:19 02:50:37 28° 90° (E) 02:56:35 435.800 - 435.900 CW/SSB
MaSat-1 23 Oct 02:52:24 02:56:17 78° 133° (SE) 02:59:43 437.345 MHz
Gurwin Techsat 1B 23 Oct 02:53:05 02:54:23 11° 75° (ENE) 02:55:42 435.225 FM
TMSAT-1 23 Oct 03:05:48 03:06:52 11° 75° (ENE) 03:07:55 436.925 FM
Oscar 19 23 Oct 03:14:58 03:19:49 40° 97° (E) 03:24:38 437.125 CW, 437.150 USB
AO-27 23 Oct 03:27:56 03:32:24 27° 91° (E) 03:36:51 436.795 MHz FM
OPAL 23 Oct 03:29:02 03:32:51 22° 39° (NE) 03:36:38 ?
RS-15 23 Oct 03:34:02 03:45:00 77° 346° (NNW) 03:56:14 29.354 - 29.394 USB, Beacon 29.352 USB
Oscar 16 23 Oct 04:00:23 04:05:34 78° 107° (ESE) 04:10:42 437.025 USB, Beacon 2401.1428
AO-Echo 23 Oct 04:10:29 04:15:44 61° 103° (ESE) 04:21:00 ?
Uribyol 2 23 Oct 04:16:27 04:21:38 55° 102° (ESE) 04:26:45 436.500 FM
ITAMSAT 1 23 Oct 04:21:59 04:27:11 57° 102° (ESE) 04:32:20 435.822 SSB
MaSat-1 23 Oct 04:28:56 04:32:15 31° 333° (NNW) 04:35:14 437.345 MHz
Gurwin Techsat 1B 23 Oct 04:30:44 04:35:51 44° 98° (E) 04:40:55 435.225 FM
PCSat 23 Oct 04:34:43 04:36:35 12° 103° (ESE) 04:38:27 145.825 MHz
JAS-1B 23 Oct 04:35:55 04:42:01 87° 291° (WNW) 04:49:10 435.800 - 435.900 CW/SSB
TMSAT-1 23 Oct 04:43:13 04:48:17 43° 97° (E) 04:53:20 436.925 FM
Oscar 19 23 Oct 04:54:23 04:59:22 53° 298° (WNW) 05:04:20 437.125 CW, 437.150 USB
OPAL 23 Oct 05:05:58 05:11:02 63° 61° (ENE) 05:16:03 ?
AO-27 23 Oct 05:07:13 05:12:30 78° 292° (WNW) 05:17:44 436.795 MHz FM
AO-7 23 Oct 05:10:20 05:17:17 28° 87° (E) 05:24:12 29.400 - 29.500 MHz
STRAND 1 23 Oct 05:10:41 05:14:14 19° 40° (NE) 05:17:46 ?
Oscar 16 23 Oct 05:40:08 05:44:36 31° 309° (NW) 05:49:02 437.025 USB, Beacon 2401.1428
RS-15 23 Oct 05:47:19 05:58:21 78° 17° (NNE) 06:09:43 29.354 - 29.394 USB, Beacon 29.352 USB
AO-Echo 23 Oct 05:49:32 05:54:22 39° 304° (NW) 05:59:15 ?
Sapphire 23 Oct 05:51:24 05:56:07 31° 119° (ESE) 06:00:52 437.095 MHz 1200 baud AX-25 AFSK
Uosat F 23 Oct 05:53:59 05:58:32 32° 94° (E) 06:03:02 435.120 FM
Uribyol 2 23 Oct 05:56:10 06:01:04 41° 304° (WNW) 06:05:55 436.500 FM
ITAMSAT 1 23 Oct 06:01:44 06:06:36 40° 304° (NW) 06:11:27 435.822 SSB
MaSat-1 23 Oct 06:06:15 06:08:46 19° 355° (N) 06:11:05 437.345 MHz
Gurwin Techsat 1B 23 Oct 06:10:49 06:15:59 51° 299° (WNW) 06:21:07 435.225 FM
PCSat 23 Oct 06:13:37 06:18:42 43° 125° (SE) 06:23:49 145.825 MHz
TMSAT-1 23 Oct 06:23:14 06:28:24 52° 299° (WNW) 06:33:32 436.925 FM
JAS-1B 23 Oct 06:27:08 06:32:16 31° 314° (NW) 06:37:59 435.800 - 435.900 CW/SSB
JAS-2 23 Oct 06:28:04 06:34:45 33° 87° (E) 06:41:40 435.800 - 435.900 CW/SSB, 435.910 FM
Oscar 19 23 Oct 06:34:25 06:37:49 18° 321° (NW) 06:41:13 437.125 CW, 437.150 USB
Hamsat 23 Oct 06:39:55 06:42:38 17° 85° (E) 06:45:20 145.90 MHz
OPAL 23 Oct 06:45:36 06:50:16 34° 262° (W) 06:54:54 ?
AO-27 23 Oct 06:47:14 06:51:25 25° 315° (NW) 06:55:35 436.795 MHz FM
STRAND 1 23 Oct 06:47:32 06:52:33 55° 62° (ENE) 06:57:36 ?
AO-7 23 Oct 07:03:05 07:11:28 78° 112° (ESE) 07:19:49 29.400 - 29.500 MHz
Oscar 16 23 Oct 07:20:31 07:22:36 13° 332° (NNW) 07:24:41 437.025 USB, Beacon 2401.1428
AO-Echo 23 Oct 07:29:08 07:31:58 15° 326° (NW) 07:34:50 ?
Uosat F 23 Oct 07:32:40 07:37:43 65° 295° (WNW) 07:42:43 435.120 FM
Sapphire 23 Oct 07:33:40 07:39:07 90° 318° (NW) 07:44:36 437.095 MHz 1200 baud AX-25 AFSK
Uribyol 2 23 Oct 07:36:23 07:39:25 16° 326° (NNW) 07:42:26 436.500 FM
ITAMSAT 1 23 Oct 07:41:59 07:44:58 16° 327° (NNW) 07:47:56 435.822 SSB
MaSat-1 23 Oct 07:42:41 07:45:23 24° 20° (NNE) 07:47:49 437.345 MHz
Gurwin Techsat 1B 23 Oct 07:51:26 07:55:00 19° 322° (NW) 07:58:32 435.225 FM
PCSat 23 Oct 07:56:31 08:01:58 74° 328° (NNW) 08:07:26 145.825 MHz
RS-15 23 Oct 07:59:56 08:10:47 67° 227° (SW) 08:22:01 29.354 - 29.394 USB, Beacon 29.352 USB
TMSAT-1 23 Oct 08:03:48 08:07:23 19° 322° (NW) 08:10:57 436.925 FM
JAS-2 23 Oct 08:13:05 08:20:37 89° 110° (ESE) 08:28:32 435.800 - 435.900 CW/SSB, 435.910 FM
Hamsat 23 Oct 08:15:04 08:19:17 83° 106° (ESE) 08:23:29 145.90 MHz
JAS-1B 23 Oct 08:18:20 08:21:20 14° 340° (NNW) 08:24:28 435.800 - 435.900 CW/SSB
STRAND 1 23 Oct 08:27:11 08:31:59 39° 264° (W) 08:36:50 ?
AO-27 23 Oct 08:27:56 08:29:23 11° 338° (NNW) 08:30:49 436.795 MHz FM
AO-7 23 Oct 08:56:10 09:03:57 47° 316° (NW) 09:11:45 29.400 - 29.500 MHz
SO-67 23 Oct 09:04:47 09:08:10 49° 100° (E) 09:11:32 435.3500 MHz FM
Uosat F 23 Oct 09:12:03 09:15:46 21° 317° (NW) 09:19:29 435.120 FM
Sapphire 23 Oct 09:17:45 09:23:02 49° 346° (NNW) 09:28:21 437.095 MHz 1200 baud AX-25 AFSK
MaSat-1 23 Oct 09:18:25 09:21:30 85° 44° (NE) 09:24:13 437.345 MHz
Saudisat 1A 23 Oct 09:23:51 09:27:01 20° 121° (ESE) 09:30:11 436.775 MHz
HO-68 23 Oct 09:37:21 09:42:47 22° 83° (E) 09:48:11 435.675 MHz FM
PCSat 23 Oct 09:40:48 09:46:03 46° 353° (N) 09:51:18 145.825 MHz
Hamsat 23 Oct 09:51:33 09:54:51 23° 307° (NW) 09:58:08 145.90 MHz
JAS-2 23 Oct 09:58:28 10:05:07 39° 312° (NW) 10:12:09 435.800 - 435.900 CW/SSB, 435.910 FM
JAS-1B 23 Oct 10:07:37 10:09:41 12° 8° (N) 10:11:48 435.800 - 435.900 CW/SSB
RS-15 23 Oct 10:12:28 10:21:15 29° 254° (WSW) 10:30:17 29.354 - 29.394 USB, Beacon 29.352 USB
Oscar 11 23 Oct 10:25:05 10:27:25 14° 83° (E) 10:29:43 145.825 FM, Beacon 2401.500 USB
Oscar 16 23 Oct 10:36:51 10:37:09 10° 21° (NNE) 10:37:27 437.025 USB, Beacon 2401.1428
SO-67 23 Oct 10:38:05 10:41:00 26° 301° (WNW) 10:43:55 435.3500 MHz FM
AO-7 23 Oct 10:48:35 10:55:09 27° 343° (NNW) 11:01:44 29.400 - 29.500 MHz
MaSat-1 23 Oct 10:55:04 10:56:37 14° 248° (WSW) 10:58:04 437.345 MHz
Saudisat 1A 23 Oct 11:01:34 11:05:56 65° 143° (SE) 11:10:20 436.775 MHz
Sapphire 23 Oct 11:02:05 11:07:22 47° 11° (NNE) 11:12:38 437.095 MHz 1200 baud AX-25 AFSK
ZACube-1 23 Oct 11:09:34 11:12:24 17° 85° (E) 11:15:11 437.345 MHz
UKube-1 23 Oct 11:17:16 11:21:15 33° 96° (E) 11:25:13 145.840 MHz, 145.915 MHz
HO-68 23 Oct 11:24:39 11:31:53 69° 107° (ESE) 11:39:04 435.675 MHz FM
PCSat 23 Oct 11:25:00 11:30:21 52° 18° (NNE) 11:35:40 145.825 MHz
Oscar 19 23 Oct 11:27:14 11:30:00 15° 33° (NNE) 11:32:46 437.125 CW, 437.150 USB
AO-27 23 Oct 11:42:05 11:44:16 13° 27° (NNE) 11:46:27 436.795 MHz FM
JAS-2 23 Oct 11:43:36 11:48:29 20° 335° (NNW) 11:53:37 435.800 - 435.900 CW/SSB, 435.910 FM
FUNcube-1 23 Oct 11:54:08 11:58:07 34° 95° (E) 12:02:00 145.950 - 145.970 MHz USB
JAS-1B 23 Oct 11:54:13 11:58:20 21° 36° (NE) 12:02:33 435.800 - 435.900 CW/SSB
Oscar 11 23 Oct 12:00:08 12:04:27 67° 104° (ESE) 12:08:45 145.825 FM, Beacon 2401.500 USB
Oscar 16 23 Oct 12:10:59 12:14:54 23° 44° (NE) 12:18:50 437.025 USB, Beacon 2401.1428
KITSAT 1 23 Oct 12:17:54 12:21:26 14° 96° (E) 12:24:58 435.175 FM
AO-Echo 23 Oct 12:19:04 12:22:19 17° 38° (NE) 12:25:37 ?
Uribyol 2 23 Oct 12:28:27 12:32:01 19° 39° (NE) 12:35:35 436.500 FM
ITAMSAT 1 23 Oct 12:34:00 12:37:37 19° 39° (NE) 12:41:16 435.822 SSB
AO-7 23 Oct 12:39:24 12:45:44 25° 10° (N) 12:52:05 29.400 - 29.500 MHz
Saudisat 1A 23 Oct 12:41:15 12:45:39 60° 346° (NNW) 12:50:03 436.775 MHz
ZACube-1 23 Oct 12:45:10 12:49:35 81° 106° (ESE) 12:53:50 437.345 MHz
Gurwin Techsat 1B 23 Oct 12:45:45 12:48:58 17° 35° (NE) 12:52:12 435.225 FM
Sapphire 23 Oct 12:45:52 12:51:21 84° 36° (NE) 12:56:49 437.095 MHz 1200 baud AX-25 AFSK
UKube-1 23 Oct 12:53:24 12:57:41 52° 297° (WNW) 13:01:56 145.840 MHz, 145.915 MHz
TMSAT-1 23 Oct 12:58:03 13:01:12 16° 34° (NE) 13:04:22 436.925 FM
Oscar 19 23 Oct 13:03:27 13:08:12 39° 56° (NE) 13:12:57 437.125 CW, 437.150 USB
PCSat 23 Oct 13:08:40 13:14:08 78° 222° (SW) 13:19:34 145.825 MHz
HO-68 23 Oct 13:12:39 13:19:27 47° 310° (NW) 13:26:13 435.675 MHz FM
AO-27 23 Oct 13:17:54 13:22:24 30° 50° (NE) 13:26:54 436.795 MHz FM
JAS-2 23 Oct 13:27:25 13:31:09 15° 1° (N) 13:35:04 435.800 - 435.900 CW/SSB, 435.910 FM
FUNcube-1 23 Oct 13:30:29 13:34:43 49° 296° (WNW) 13:38:49 145.950 - 145.970 MHz USB
Oscar 11 23 Oct 13:36:42 13:40:23 28° 305° (NW) 13:44:03 145.825 FM, Beacon 2401.500 USB
JAS-1B 23 Oct 13:42:27 13:48:05 60° 61° (ENE) 13:53:46 435.800 - 435.900 CW/SSB
